{"data":{"norad_id":49157,"intl_designator":"2021-082AD","name":"STARLINK-3051","alt_names":[],"object_type":"PAYLOAD","status":"ACTIVE","operator":null,"country":"US","launch_date":"2021-09-14","launch_site_code":"AFWTR","launch_vehicle":null,"mission":null,"orbit_class":"UNKNOWN","rcs_meters":null,"size_class":null,"mass_kg":null,"dimensions":null,"purposes":["comms"],"wikipedia_slug":null,"has_3d_model":false,"image_url":null,"decayed_at":null,"tle_current":{"epoch":"2026-09-20T01:16:37.565184Z","epoch_age_seconds":78616,"freshness":"FRESH","line1":"1 49157U 21082AD  26263.05321256  .00004505  00000+0  30665-3 0  9998","line2":"2 49157  69.9963 135.9693 0005540 298.3010  61.7594 15.07010077276895","mean_motion":15.07010077,"eccentricity":0.000554,"inclination_deg":69.9963,"raan_deg":135.9693,"arg_perigee_deg":298.301,"mean_anomaly_deg":61.7594,"bstar":0.00030665,"rev_number":27689,"period_min":95.553442009267,"perigee_km":541.50678303234,"apogee_km":549.17799819714,"semimajor_km":6923.4793906147,"source":"CELESTRAK","updated_at":"2026-09-20T09:00:39.251084Z"}}}